Meteo pe oră la Alloza

Astăzi, 17 Ianuarie, Duminică

Timp Temperatura Precipitaţii Vânt Presiune Umiditate
00:00 +3°C° 0 mm 4 m/s 709 mmHg 49%
01:00 +3°C° 0 mm 4 m/s 709 mmHg 49%
02:00 +3°C° 0 mm 4 m/s 708 mmHg 48%
03:00 +3°C° 0 mm 4 m/s 708 mmHg 48%
04:00 +2°C° 0 mm 5 m/s 708 mmHg 49%
05:00 +2°C° 0 mm 5 m/s 708 mmHg 50%
06:00 +1°C° 0 mm 5 m/s 708 mmHg 51%
07:00 +2°C° 0 mm 5 m/s 708 mmHg 54%
08:00 +3°C° 0 mm 5 m/s 708 mmHg 56%
09:00 +5°C° 0 mm 5 m/s 708 mmHg 59%
10:00 +5°C° 0 mm 6 m/s 708 mmHg 61%
11:00 +6°C° 0 mm 7 m/s 708 mmHg 62%
12:00 +9°C° 0 mm 8 m/s 708 mmHg 64%
13:00 +9°C° 0 mm 8 m/s 708 mmHg 65%
14:00 +7°C° 0 mm 8 m/s 707 mmHg 67%
15:00 +7°C° 0 mm 8 m/s 707 mmHg 68%
16:00 +6°C° 0 mm 7 m/s 707 mmHg 72%
17:00 +5°C° 0 mm 7 m/s 707 mmHg 75%
18:00 +4°C° 0 mm 6 m/s 707 mmHg 79%
19:00 +4°C° 0 mm 6 m/s 707 mmHg 80%
20:00 +4°C° 0 mm 6 m/s 708 mmHg 82%
21:00 +4°C° 0 mm 6 m/s 708 mmHg 83%
22:00 +3°C° 0 mm 5 m/s 708 mmHg 84%
23:00 +3°C° 0 mm 5 m/s 708 mmHg 86%

Mâine, 18 Ianuarie, Luni

Timp Temperatura Precipitaţii Vânt Presiune Umiditate
00:00 +3°C° 0 mm 5 m/s 709 mmHg 87%
01:00 +4°C° 0 mm 4 m/s 708 mmHg 87%
02:00 +3°C° 0 mm 4 m/s 708 mmHg 87%
03:00 +3°C° 0 mm 4 m/s 708 mmHg 87%
04:00 +3°C° 0 mm 3 m/s 708 mmHg 86%
05:00 +3°C° 0 mm 3 m/s 708 mmHg 86%
06:00 +3°C° 0 mm 3 m/s 708 mmHg 86%
07:00 +3°C° 0 mm 3 m/s 708 mmHg 85%
08:00 +4°C° 0 mm 3 m/s 708 mmHg 83%
09:00 +5°C° 0 mm 3 m/s 709 mmHg 81%
10:00 +7°C° 0 mm 3 m/s 709 mmHg 78%
11:00 +8°C° 0 mm 3 m/s 709 mmHg 75%
12:00 +8°C° 0 mm 4 m/s 709 mmHg 72%
13:00 +9°C° 0 mm 3 m/s 708 mmHg 72%
14:00 +9°C° 0 mm 3 m/s 708 mmHg 71%
15:00 +9°C° 0 mm 2 m/s 707 mmHg 71%
16:00 +8°C° 0 mm 2 m/s 707 mmHg 76%
17:00 +6°C° 0 mm 2 m/s 707 mmHg 81%
18:00 +5°C° 0 mm 1 m/s 707 mmHg 86%
19:00 +4°C° 0 mm 2 m/s 707 mmHg 86%
20:00 +4°C° 0 mm 2 m/s 708 mmHg 86%
21:00 +4°C° 0 mm 2 m/s 708 mmHg 86%
22:00 +3°C° 0 mm 2 m/s 708 mmHg 87%
23:00 +3°C° 0 mm 2 m/s 708 mmHg 87%

Poimâine, 19 Ianuarie, Marţi

Timp Temperatura Precipitaţii Vânt Presiune Umiditate
00:00 +3°C° 0 mm 2 m/s 708 mmHg 88%
01:00 +3°C° 0 mm 2 m/s 707 mmHg 87%
02:00 +3°C° 0 mm 1 m/s 707 mmHg 85%
03:00 +3°C° 0 mm 1 m/s 706 mmHg 84%
04:00 +3°C° 0 mm 1 m/s 706 mmHg 82%
05:00 +3°C° 0 mm 1 m/s 706 mmHg 80%
06:00 +3°C° 0 mm 1 m/s 706 mmHg 78%
07:00 +3°C° 0 mm 2 m/s 706 mmHg 73%
08:00 +4°C° 0 mm 2 m/s 706 mmHg 68%
09:00 +5°C° 0 mm 2 m/s 706 mmHg 63%
10:00 +7°C° 0 mm 2 m/s 706 mmHg 57%
11:00 +8°C° 0 mm 2 m/s 706 mmHg 52%
12:00 +10°C° 0 mm 2 m/s 706 mmHg 46%
13:00 +10°C° 0 mm 2 m/s 705 mmHg 48%
14:00 +10°C° 0 mm 2 m/s 704 mmHg 49%
15:00 +10°C° 0 mm 2 m/s 704 mmHg 51%
16:00 +8°C° 0 mm 2 m/s 704 mmHg 58%
17:00 +6°C° 0 mm 2 m/s 703 mmHg 65%
18:00 +4°C° 0 mm 2 m/s 703 mmHg 72%
19:00 +3°C° 0 mm 3 m/s 703 mmHg 70%
20:00 +3°C° 0 mm 3 m/s 703 mmHg 69%
21:00 +3°C° 0 mm 3 m/s 703 mmHg 68%
22:00 +3°C° 0 mm 3 m/s 703 mmHg 69%
23:00 +3°C° 0 mm 3 m/s 702 mmHg 70%

20 Ianuarie, Miercuri

Timp Temperatura Precipitaţii Vânt Presiune Umiditate
00:00 +2°C° 0 mm 3 m/s 702 mmHg 72%
01:00 +2°C° 0 mm 3 m/s 701 mmHg 72%
02:00 +2°C° 0 mm 3 m/s 701 mmHg 73%
03:00 +2°C° 0 mm 3 m/s 700 mmHg 73%
04:00 +2°C° 0 mm 3 m/s 700 mmHg 74%
05:00 +2°C° 0 mm 3 m/s 699 mmHg 75%
06:00 +2°C° 0 mm 3 m/s 699 mmHg 76%
07:00 +3°C° 0 mm 3 m/s 699 mmHg 76%
08:00 +4°C° 0 mm 3 m/s 699 mmHg 75%
09:00 +4°C° 0 mm 4 m/s 699 mmHg 75%
10:00 +5°C° 0 mm 5 m/s 698 mmHg 73%
11:00 +6°C° 0 mm 7 m/s 698 mmHg 70%
12:00 +7°C° 0 mm 8 m/s 697 mmHg 68%
13:00 +7°C° 0 mm 8 m/s 697 mmHg 69%
14:00 +8°C° 0 mm 7 m/s 696 mmHg 71%
15:00 +8°C° 0 mm 6 m/s 695 mmHg 72%
16:00 +7°C° 0 mm 6 m/s 695 mmHg 74%
17:00 +7°C° 0 mm 6 m/s 695 mmHg 76%
18:00 +5°C° 0 mm 6 m/s 696 mmHg 77%
19:00 +5°C° 0 mm 6 m/s 696 mmHg 78%
20:00 +5°C° 0 mm 7 m/s 696 mmHg 78%
21:00 +5°C° 0 mm 7 m/s 696 mmHg 79%
22:00 +5°C° 0 mm 7 m/s 696 mmHg 80%
23:00 +5°C° 0 mm 7 m/s 697 mmHg 80%

21 Ianuarie, Joi

Timp Temperatura Precipitaţii Vânt Presiune Umiditate
00:00 +5°C° 0 mm 7 m/s 697 mmHg 81%
01:00 +5°C° 0 mm 7 m/s 697 mmHg 80%
02:00 +5°C° 0 mm 8 m/s 697 mmHg 79%
03:00 +5°C° 0 mm 8 m/s 697 mmHg 78%
04:00 +5°C° 0 mm 8 m/s 697 mmHg 78%
05:00 +5°C° 0 mm 9 m/s 697 mmHg 78%
06:00 +5°C° 0 mm 9 m/s 698 mmHg 79%
07:00 +5°C° 0 mm 9 m/s 698 mmHg 77%
08:00 +6°C° 0 mm 9 m/s 698 mmHg 75%
09:00 +6°C° 0 mm 9 m/s 699 mmHg 73%
10:00 +7°C° 0 mm 10 m/s 699 mmHg 69%
11:00 +8°C° 0 mm 10 m/s 699 mmHg 65%
12:00 +9°C° 0 mm 10 m/s 699 mmHg 61%
13:00 +9°C° 0 mm 10 m/s 698 mmHg 62%
14:00 +9°C° 0 mm 10 m/s 698 mmHg 62%
15:00 +9°C° 0 mm 10 m/s 697 mmHg 62%
16:00 +8°C° 0 mm 9 m/s 697 mmHg 64%
17:00 +8°C° 0 mm 9 m/s 696 mmHg 66%
18:00 +7°C° 0 mm 9 m/s 696 mmHg 68%
19:00 +7°C° 0.1 mm 10 m/s 696 mmHg 71%
20:00 +7°C° 0.1 mm 10 m/s 696 mmHg 73%
21:00 +7°C° 0.1 mm 11 m/s 696 mmHg 76%
22:00 +7°C° 0 mm 11 m/s 696 mmHg 74%
23:00 +7°C° 0 mm 11 m/s 696 mmHg 73%

22 Ianuarie, Vineri

Timp Temperatura Precipitaţii Vânt Presiune Umiditate
00:00 +7°C° 0 mm 10 m/s 696 mmHg 71%
01:00 +6°C° 0 mm 11 m/s 696 mmHg 71%
02:00 +6°C° 0 mm 11 m/s 696 mmHg 70%
03:00 +4°C° 0 mm 12 m/s 696 mmHg 70%
04:00 +4°C° 0 mm 12 m/s 696 mmHg 70%
05:00 +4°C° 0 mm 11 m/s 696 mmHg 69%
06:00 +4°C° 0 mm 11 m/s 696 mmHg 69%
07:00 +4°C° 0 mm 12 m/s 696 mmHg 68%
08:00 +4°C° 0 mm 13 m/s 697 mmHg 67%
09:00 +5°C° 0 mm 14 m/s 697 mmHg 66%
10:00 +5°C° 0.1 mm 13 m/s 697 mmHg 66%
11:00 +5°C° 0.1 mm 12 m/s 697 mmHg 67%
12:00 +7°C° 0.1 mm 12 m/s 697 mmHg 67%
13:00 +5°C° 0.7 mm 13 m/s 697 mmHg 67%
14:00 +5°C° 0.7 mm 14 m/s 697 mmHg 67%
15:00 +5°C° 0.7 mm 15 m/s 697 mmHg 67%
16:00 +4°C° 0 mm 14 m/s 698 mmHg 68%
17:00 +4°C° 0 mm 12 m/s 698 mmHg 69%
18:00 +3°C° 0 mm 10 m/s 698 mmHg 71%
19:00 +3°C° 0 mm 10 m/s 699 mmHg 70%
20:00 +3°C° 0 mm 11 m/s 700 mmHg 70%
21:00 +3°C° 0 mm 12 m/s 700 mmHg 70%
22:00 +2°C° 0 mm 12 m/s 700 mmHg 70%
23:00 +1°C° 0 mm 13 m/s 701 mmHg 70%
Arată mai mult

Formular de consimțământ

Meteoprog și furnizorii noștri de servicii pot stoca și accesa date personale, precum cookies, identificatori de dispozitiv sau alte tehnologii similare pe dispozitivul dumneavoastră și procesa astfel de date pentru a personaliza conținutul și reclamele, dar și pentru a oferi caracteristici de social media și pentru a analiza traficul.

  • Stocarea și/sau accesarea informațiilor pe dispozitivul dumneavoastră

    Cookies, identificatori de dispozitiv sau alte informații pot fi stocate sau accesate pe dispozitiv în scopurile indicate mai sus.

  • Reclame și conținut personalizat, evaluarea reclamelor și a conținutului, informații despre audiențe și dezvoltarea produselor

    Reclamele și conținutul pot fi personalizate pe baza unui profil. Pot fi adăugate date suplimentare pentru a personaliza mai bine reclamele și conținutul. Performanța reclamelor și conținutului poate fi măsurată. Pot fi obținute informații despre utilizatorii care au văzut reclamele și conținutul. Aceste date pot fi utilizate pentru a dezvolta sau îmbunătăți experiența utilizatorilor, sistemele și software-ul.

Dând clic pe ‘Sunt de acord’, permiteți utilizarea cookie-urilor menționate, a identificatorilor de dispozitiv, balizelor web sau altor tehnologii similare. Setările pot fi modificate din browser-ul dispozitivului dumneavoastră.

În anumite scopuri, interesele legitime pot prima asupra consimțământului. Puteți citi mai multe informații în acest sens în Politica privind Confidențialitatea Datelor și Cookie.